User: anonymous   Login
Location: Ertinghausen
(51.6624°N, 9.7874°E)
Time: 00:23:26
(UTC+00:00)
Language:

Cosmos 407 Rocket - Orbit

View from above orbital plane
View from above orbital plane
View from above satellite
View from above satellite

Ground track
Ground track

The orbit data is extracted from the following two-line orbital elements,

1 05175U 71035B   24194.57293468  .00000566  00000-0  19188-3 0  9995
2 05175  74.0481 135.8855 0028421  63.8168 296.5904 14.38768634785890
Epoch (UTC): 12 July 2024 13:45:01
Eccentricity: 0.0028421
inclination: 74.0481°
perigee height: 742 km
apogee height: 783 km
right ascension of ascending node: 135.8855°
argument of perigee: 63.8168°
revolutions per day: 14.38768634
mean anomaly at epoch: 296.5904°
orbit number at epoch: 78589

The dashed part of the orbit path shows where the satellite is in the earth's shadow,  

DLR